Sigfox identifier Datetime Temperature Humidity SNR
002E6656 2019-04-23 15:00:22 16.5 31 24.8
002E6656 2019-04-23 14:27:31 16.4 31 24.9
002E6656 2019-04-23 13:54:40 16.3 31 24.6
002E6656 2019-04-23 13:21:49 16.3 31 24.5
002E6656 2019-04-23 12:48:58 16 31 24.4
002E6656 2019-04-23 12:16:06 15.9 30 24.3
002E6656 2019-04-23 11:43:15 15.8 30 24.3
002E6656 2019-04-23 11:10:24 15.6 30 24
002E6656 2019-04-23 10:37:33 15.6 30 23.6
002E6656 2019-04-23 10:04:41 15.6 30 23.6
002E6656 2019-04-23 09:31:50 15.6 30 22.9
002E6656 2019-04-23 08:58:59 15.6 30 22.8
002E6656 2019-04-23 08:26:08 15.6 30 22.7
002E6656 2019-04-23 07:53:17 15.6 30 22
002E6656 2019-04-23 07:20:26 15.6 30 22
002E6656 2019-04-23 06:47:35 15.6 30 21.9
002E6656 2019-04-23 06:14:43 15.6 30 21.9
002E6656 2019-04-23 05:41:52 15.5 30 21.9
002E6656 2019-04-23 05:09:00 15.5 30 21.8
002E6656 2019-04-23 04:36:10 15.6 30 21.7
002E6656 2019-04-23 04:03:20 15.6 30 21.7
002E6656 2019-04-23 03:30:29 15.6 30 21.7
002E6656 2019-04-23 02:57:39 15.5 30 21.6
002E6656 2019-04-23 02:24:48 15.6 30 21.7
002E6656 2019-04-23 01:51:58 15.6 30 21.7
002E6656 2019-04-23 01:19:07 15.6 30 21.7
002E6656 2019-04-23 00:46:17 15.6 30 21.7
002E6656 2019-04-23 00:13:27 15.6 30 21.8
002E6656 2019-04-22 23:40:37 15.6 30 21.9
002E6656 2019-04-22 23:07:47 15.6 30 21.9
002E6656 2019-04-22 22:34:57 15.6 30 22
002E6656 2019-04-22 22:02:07 15.6 30 22
002E6656 2019-04-22 21:29:16 15.8 30 22
002E6656 2019-04-22 20:56:26 15.8 30 22.1
002E6656 2019-04-22 20:23:35 15.9 30 22.2
002E6656 2019-04-22 19:50:44 15.8 30 22.2
002E6656 2019-04-22 19:17:54 15.8 30 22.3
002E6656 2019-04-22 18:45:03 16 29 22.4
002E6656 2019-04-22 18:12:12 16 30 22.5
002E6656 2019-04-22 17:39:22 16 29 22.7
002E6656 2019-04-22 17:06:31 16 29 22.7
002E6656 2019-04-22 16:33:41 16 29 22.8
002E6656 2019-04-22 16:00:50 16 29 23
002E6656 2019-04-22 15:27:59 15.9 29 23
002E6656 2019-04-22 14:55:07 15.8 29 23
002E6656 2019-04-22 14:22:17 15.8 29 23
002E6656 2019-04-22 13:49:27 15.8 29 23.1
002E6656 2019-04-22 13:16:37 15.7 29 23.2
002E6656 2019-04-22 12:43:46 15.7 29 23.2
002E6656 2019-04-22 12:10:56 15.6 29 23.2
002E6656 2019-04-22 11:38:05 15.6 29 23.2
002E6656 2019-04-22 11:05:14 15.7 29 23.2
002E6656 2019-04-22 10:32:23 15.8 29 23.2
002E6656 2019-04-22 09:59:33 15.6 29 23.2
002E6656 2019-04-22 09:26:43 15.6 29 23.1
002E6656 2019-04-22 08:53:52 15.6 29 23.1
002E6656 2019-04-22 08:21:02 15.6 29 23
002E6656 2019-04-22 07:48:11 15.6 29 23
002E6656 2019-04-22 07:15:21 15.6 29 22.9
002E6656 2019-04-22 06:42:30 15.6 29 22.9
002E6656 2019-04-22 06:09:39 15.6 29 22.8
002E6656 2019-04-22 05:36:49 15.6 29 22.8
002E6656 2019-04-22 05:03:57 15.6 29 22.7
002E6656 2019-04-22 04:31:07 15.6 29 22.6
002E6656 2019-04-22 03:58:17 15.6 29 22.4
002E6656 2019-04-22 03:25:28 15.6 29 22.4
002E6656 2019-04-22 02:52:41 15.6 29 22.3
002E6656 2019-04-22 02:19:51 15.5 29 22.3
002E6656 2019-04-22 01:47:00 15.6 29 22.4
002E6656 2019-04-22 01:14:11 15.6 29 22.4
002E6656 2019-04-22 00:41:23 15.4 29 22.5
002E6656 2019-04-22 00:08:30 15.6 29 22.5
002E6656 2019-04-21 23:35:40 15.4 29 22.3
002E6656 2019-04-21 23:02:49 15.4 29 22.3
002E6656 2019-04-21 22:29:59 15.4 29 22.4
002E6656 2019-04-21 21:57:12 15.4 29 22.4
002E6656 2019-04-21 21:24:26 15.5 29 22.3
002E6656 2019-04-21 20:51:41 15.5 29 22.2
002E6656 2019-04-21 20:18:56 15.4 29 22.3
002E6656 2019-04-21 19:46:11 15.5 29 22.5
002E6656 2019-04-21 19:13:25 15.4 28 22.7
002E6656 2019-04-21 18:40:38 15.4 28 22.7
002E6656 2019-04-21 18:07:50 15.4 28 22.8
002E6656 2019-04-21 17:35:02 15.4 28 22.9
002E6656 2019-04-21 17:02:12 15.4 28 23.1
002E6656 2019-04-21 16:29:22 15.4 28 23.2
002E6656 2019-04-21 15:56:33 15.4 28 23.3
002E6656 2019-04-21 15:23:43 15.4 28 23.3
002E6656 2019-04-21 14:50:54 15.4 28 23.3
002E6656 2019-04-21 14:18:03 15.4 28 23.5
002E6656 2019-04-21 13:45:14 15.4 28 23.5
002E6656 2019-04-21 13:12:24 15.4 28 23.5
002E6656 2019-04-21 12:39:34 15.3 28 23.5
002E6656 2019-04-21 12:06:44 15.4 28 23.5
002E6656 2019-04-21 11:33:54 15.3 28 23.4
002E6656 2019-04-21 11:01:04 15.4 28 23.4
002E6656 2019-04-21 10:28:12 15.4 28 23.3
002E6656 2019-04-21 09:55:21 15.4 28 23.3
002E6656 2019-04-21 09:22:30 15.5 28 23.3
002E6656 2019-04-21 08:49:39 15.6 28 23.3
002E6656 2019-04-21 08:16:48 15.6 28 23.3
002E6656 2019-04-21 07:43:57 15.6 28 23.4
002E6656 2019-04-21 07:11:08 15.6 28 23.4
002E6656 2019-04-21 06:38:20 15.6 28 23.3
002E6656 2019-04-21 06:05:32 15.6 28 23.1
002E6656 2019-04-21 05:32:45 15.6 28 22.9
002E6656 2019-04-21 04:59:57 15.6 28 22.9
002E6656 2019-04-21 04:27:09 15.6 28 22.8
002E6656 2019-04-21 03:54:21 15.6 28 22.6
002E6656 2019-04-21 03:21:33 15.4 28 22.4
002E6656 2019-04-21 02:48:48 15.6 28 22.2
002E6656 2019-04-21 02:15:57 15.4 28 22.1
002E6656 2019-04-21 01:43:06 15.6 28 22
002E6656 2019-04-21 01:10:16 15.6 28 22
002E6656 2019-04-21 00:37:25 15.5 28 21.9
002E6656 2019-04-21 00:04:35 15.6 28 21.7
002E6656 2019-04-20 23:31:45 15.4 28 21.6
002E6656 2019-04-20 22:58:54 15.4 28 21.4
002E6656 2019-04-20 22:26:03 15.4 27 21.3
002E6656 2019-04-20 21:53:11 15.5 27 21.3
002E6656 2019-04-20 21:20:20 15.6 27 21.1
002E6656 2019-04-20 20:47:30 15.5 27 21.1
002E6656 2019-04-20 20:14:38 15.6 27 21.1
002E6656 2019-04-20 19:41:47 15.5 27 21.1
002E6656 2019-04-20 19:08:56 15.5 27 21.2
002E6656 2019-04-20 18:36:05 15.6 27 21.2
002E6656 2019-04-20 18:03:13 15.6 27 21.2
002E6656 2019-04-20 17:30:22 15.6 27 21.3
002E6656 2019-04-20 16:57:32 15.4 27 21.2
002E6656 2019-04-20 16:24:41 15.5 27 21.3
002E6656 2019-04-20 15:51:50 15.5 27 21.2
002E6656 2019-04-20 15:18:59 15.5 27 21.2
002E6656 2019-04-20 14:46:09 15.4 27 21.2
002E6656 2019-04-20 14:13:18 15.4 27 21.2
002E6656 2019-04-20 13:40:27 15.4 27 21.2
002E6656 2019-04-20 13:07:35 15.4 27 21.2
002E6656 2019-04-20 12:34:46 15.4 27 21.2
002E6656 2019-04-20 12:01:54 15.4 27 21.2
002E6656 2019-04-20 11:29:04 15.5 27 21.1
002E6656 2019-04-20 10:56:14 15.4 27 21
002E6656 2019-04-20 10:23:24 15.4 27 21
002E6656 2019-04-20 09:50:34 15.4 27 21
002E6656 2019-04-20 09:17:44 15.5 27 21.1
002E6656 2019-04-20 08:44:53 15.6 27 20.9
002E6656 2019-04-20 08:12:03 15.6 27 20.8
002E6656 2019-04-20 07:39:13 15.6 27 20.8
002E6656 2019-04-20 07:06:22 15.8 27 20.8
002E6656 2019-04-20 06:33:33 15.6 27 20.6
002E6656 2019-04-20 06:00:43 15.6 27 20.5
002E6656 2019-04-20 05:27:53 15.6 27 20.4
002E6656 2019-04-20 04:55:03 15.6 27 20.1
002E6656 2019-04-20 04:22:11 15.6 27 20
002E6656 2019-04-20 03:49:21 15.6 27 19.8
002E6656 2019-04-20 03:16:30 15.6 27 19.8
002E6656 2019-04-20 02:43:40 15.6 26 19.8
002E6656 2019-04-20 02:10:49 15.7 26 20.2
002E6656 2019-04-20 01:38:00 15.8 26 20.1
002E6656 2019-04-20 01:05:06 15.8 26 20.1
002E6656 2019-04-20 00:32:18 15.8 26 20.2
002E6656 2019-04-19 23:59:28 15.9 26 20.2
002E6656 2019-04-19 23:26:38 15.9 26 20.1
002E6656 2019-04-19 22:53:46 16 26 20.1
002E6656 2019-04-19 22:20:57 16 26 20
002E6656 2019-04-19 21:48:05 16 26 19.9
002E6656 2019-04-19 21:15:14 16 26 19.8
002E6656 2019-04-19 20:42:24 16 26 19.9
002E6656 2019-04-19 20:09:33 16 26 19.9
002E6656 2019-04-19 19:36:43 16 26 19.9
002E6656 2019-04-19 19:03:55 16.1 26 20
002E6656 2019-04-19 18:31:02 16.2 26 20.2
002E6656 2019-04-19 17:58:11 16.2 26 20.3
002E6656 2019-04-19 17:25:21 16.1 26 20.3
002E6656 2019-04-19 16:52:32 16 26 20.4
002E6656 2019-04-19 16:19:40 16 26 20.4
002E6656 2019-04-19 15:46:52 16 26 20.4
002E6656 2019-04-19 15:14:02 16 26 20.5
002E6656 2019-04-19 14:41:10 16 26 20.6
002E6656 2019-04-19 14:08:21 15.9 26 20.7
002E6656 2019-04-19 13:35:30 15.8 26 20.6
002E6656 2019-04-19 13:02:39 15.9 26 20.7
002E6656 2019-04-19 12:29:48 15.8 26 20.4
002E6656 2019-04-19 11:56:58 15.8 26 20.6
002E6656 2019-04-19 11:24:07 15.7 26 20.6
002E6656 2019-04-19 10:51:15 15.7 26 20.5
002E6656 2019-04-19 10:18:24 15.7 26 20.6
002E6656 2019-04-19 09:45:34 15.7 26 20.7
002E6656 2019-04-19 09:12:42 15.7 26 20.6
002E6656 2019-04-19 08:39:50 15.6 26 20.7
002E6656 2019-04-19 08:07:00 15.6 26 20.7
002E6656 2019-04-19 07:34:08 15.7 25 20.7
002E6656 2019-04-19 07:01:16 15.8 25 20.5
002E6656 2019-04-19 06:28:25 15.8 25 20.6
002E6656 2019-04-19 05:55:34 15.8 25 20.4
002E6656 2019-04-19 05:22:42 15.8 25 20.8
002E6656 2019-04-19 04:49:51 15.8 25 21.1
002E6656 2019-04-19 04:16:59 15.7 25 21.2
002E6656 2019-04-19 03:44:06 15.8 25 21.4
002E6656 2019-04-19 03:11:15 15.9 25 21.6
002E6656 2019-04-19 02:38:24 15.8 25 21.7
002E6656 2019-04-19 02:05:34 15.8 25 21.8
002E6656 2019-04-19 01:32:46 16 25 21.9
002E6656 2019-04-19 00:59:54 16 25 22.2
002E6656 2019-04-19 00:27:06 16.1 25 22.3
002E6656 2019-04-18 23:54:19 16.3 25 22.7
002E6656 2019-04-18 23:21:32 16.3 25 22.9
002E6656 2019-04-18 22:48:44 16.5 25 23
002E6656 2019-04-18 22:15:56 16.5 25 23.3
002E6656 2019-04-18 21:43:06 16.5 25 23.5
002E6656 2019-04-18 21:10:15 16.5 25 23.5
002E6656 2019-04-18 20:37:25 16.5 25 23.4
002E6656 2019-04-18 20:04:34 16.6 25 23.3
002E6656 2019-04-18 19:31:44 16.7 25 23.3
002E6656 2019-04-18 18:58:52 16.7 25 23.2
002E6656 2019-04-18 18:26:01 16.7 25 23.2
002E6656 2019-04-18 17:53:10 16.7 25 23.2
002E6656 2019-04-18 17:20:19 16.6 25 23.1
002E6656 2019-04-18 16:47:29 16.5 25 23
002E6656 2019-04-18 16:14:39 16.5 25 23
002E6656 2019-04-18 15:41:46 16.5 25 22.7
002E6656 2019-04-18 15:08:54 16.4 25 22.3
002E6656 2019-04-18 14:36:03 16.3 25 22.1
002E6656 2019-04-18 14:03:12 16.2 25 21.9
002E6656 2019-04-18 13:30:20 16 25 21.5
002E6656 2019-04-18 12:57:30 16 25 21.4
002E6656 2019-04-18 12:24:39 16 25 21.3
002E6656 2019-04-18 11:51:47 16 24 21.1
002E6656 2019-04-18 11:18:56 16 24 20.5
002E6656 2019-04-18 10:46:06 16 25 20.4
002E6656 2019-04-18 10:13:14 16 25 19.7
002E6656 2019-04-18 09:40:24 15.8 24 19.4
002E6656 2019-04-18 09:07:34 15.8 24 20.6
002E6656 2019-04-18 08:34:44 16 24 19.9
002E6656 2019-04-18 08:01:56 16.3 24 19.3
002E6656 2019-04-18 07:29:03 16.3 24 19.4
002E6656 2019-04-18 06:56:12 16.2 24 19.4
002E6656 2019-04-18 06:23:23 16.1 24 19.5
002E6656 2019-04-18 05:50:31 16 24 19.6
002E6656 2019-04-18 05:17:40 16 24 19.7
002E6656 2019-04-18 04:44:49 16 24 20
002E6656 2019-04-18 04:11:59 16 24 20
002E6656 2019-04-18 03:39:13 15.9 24 20.7
002E6656 2019-04-18 03:06:19 15.9 24 21
002E6656 2019-04-18 02:33:30 15.9 24 21.2
002E6656 2019-04-18 02:00:40 16.1 24 21.3
002E6656 2019-04-18 01:27:51 16 24 21.5
002E6656 2019-04-18 00:55:01 16.3 24 21.7
002E6656 2019-04-18 00:22:12 16.3 24 21.8
002E6656 2019-04-17 23:49:22 16.5 24 21.9
002E6656 2019-04-17 23:16:32 16.5 24 22
002E6656 2019-04-17 22:43:42 16.5 24 22.1
002E6656 2019-04-17 22:10:52 16.5 24 22.3
002E6656 2019-04-17 21:38:03 16.5 24 22.3
002E6656 2019-04-17 21:05:14 16.5 24 22.3
002E6656 2019-04-17 20:32:24 16.3 23 22.3
002E6656 2019-04-17 19:59:34 16.3 23 21.2
002E6656 2019-04-17 19:26:47 16.3 23 21.3
002E6656 2019-04-17 18:53:59 16.3 23 21.4
002E6656 2019-04-17 18:21:10 16.3 23 21.5
002E6656 2019-04-17 17:48:23 16.3 23 21.5
002E6656 2019-04-17 17:15:38 16.3 23 21.7
002E6656 2019-04-17 16:42:50 16.3 23 21.7
002E6656 2019-04-17 16:10:06 16 23 21.8
002E6656 2019-04-17 15:37:18 16 23 21.7
002E6656 2019-04-17 15:04:31 16 23 21.7
002E6656 2019-04-17 14:31:40 16 23 21.4
002E6656 2019-04-17 13:58:49 16.3 23 21.2
002E6656 2019-04-17 12:53:08 16.5 23 21.1
002E6656 2019-04-17 12:20:19 16.5 23 21.1
002E6656 2019-04-17 11:47:31 16.3 23 21.1
002E6656 2019-04-17 11:14:44 16.3 23 21
002E6656 2019-04-17 10:41:55 16.3 23 20.9
002E6656 2019-04-17 10:09:05 16.3 23 20.7
002E6656 2019-04-17 09:36:15 16.3 23 20.7
002E6656 2019-04-17 09:03:24 16.3 23 20.3
002E6656 2019-04-17 08:30:34 16.5 22 20.2
002E6656 2019-04-17 07:57:43 16.7 22 20
002E6656 2019-04-17 07:24:53 16.9 22 20.1
002E6656 2019-04-17 06:52:03 17.1 22 20
002E6656 2019-04-17 06:19:11 17.4 22 20.3
002E6656 2019-04-17 05:46:21 17.3 22 20.5
002E6656 2019-04-17 05:13:30 17.3 22 20.5
002E6656 2019-04-17 04:40:39 17.3 22 20.3
002E6656 2019-04-17 04:07:48 17.4 22 20.4
002E6656 2019-04-17 03:34:55 17.5 22 20.3
002E6656 2019-04-17 03:02:04 17.5 22 19.9
002E6656 2019-04-17 02:29:14 17.7 22 19.7
002E6656 2019-04-17 01:56:22 17.8 22 19.5
002E6656 2019-04-17 01:23:31 17.8 22 19.3
002E6656 2019-04-17 00:50:39 17.5 22 19.4
002E6656 2019-04-17 00:17:47 17.5 22 19.3
002E6656 2019-04-16 23:44:55 17.4 22 19.4
002E6656 2019-04-16 23:12:04 17.1 22 19.2
002E6656 2019-04-16 22:39:13 17.3 22 19.4
002E6656 2019-04-16 22:06:22 17.8 22 19.2
002E6656 2019-04-16 21:33:31 18 22 19.1
002E6656 2019-04-16 21:00:42 18.4 22 19.3
002E6656 2019-04-16 20:27:51 18.5 22 19.5
002E6656 2019-04-16 19:55:01 18.6 22 19.4
002E6656 2019-04-16 19:22:12 18.6 22 19.7
002E6656 2019-04-16 18:49:21 18.6 22 19.7
002E6656 2019-04-16 18:16:31 18.4 22 19.6
002E6656 2019-04-16 17:43:41 18.6 22 19.4
002E6656 2019-04-16 16:38:02 19 22 19.3
002E6656 2019-04-16 16:05:12 19 22 18.8
002E6656 2019-04-16 15:32:23 19.2 22 18.5
002E6656 2019-04-16 14:59:34 19.7 21 18.1
002E6656 2019-04-16 13:53:54 21.2 22 18.1
002E6656 2019-04-16 13:21:05 21.2 22 18.1
002E6656 2019-04-16 12:48:16 21.2 22 18.4
002E6656 2019-04-16 12:15:30 21 22 18.5
002E6656 2019-04-16 11:42:36 21 22 18.7
002E6656 2019-04-16 11:09:45 20.9 22 19
002E6656 2019-04-16 10:36:55 21 22 19
002E6656 2019-04-16 10:04:07 20.9 22 18.9
002E6656 2019-04-16 09:31:14 20.9 22 19
002E6656 2019-04-16 08:58:24 20.8 22 18.6
002E6656 2019-04-16 08:25:34 20.8 22 18.8
002E6656 2019-04-16 07:52:42 20.8 21 18.9
002E6656 2019-04-16 07:19:55 20.9 21 18.9
002E6656 2019-04-16 06:47:07 20.8 21 18.9
002E6656 2019-04-16 06:14:20 20.9 21 18.6
002E6656 2019-04-16 05:41:32 20.9 21 18.5
002E6656 2019-04-16 05:08:44 21 21 18.5
002E6656 2019-04-16 04:35:56 20.9 21 18.2
002E6656 2019-04-16 04:03:05 21 21 18.1
002E6656 2019-04-16 03:30:16 21 21 18.3
002E6656 2019-04-16 02:57:24 21 21 18.1
002E6656 2019-04-16 02:24:31 21 21 18.1
002E6656 2019-04-16 01:51:39 21 21 18
002E6656 2019-04-16 01:18:48 21 21 18.2
002E6656 2019-04-16 00:45:56 21 21 18.9
002E6656 2019-04-16 00:13:04 21 21 19.3
002E6656 2019-04-15 23:40:17 21 21 19.3
002E6656 2019-04-15 23:07:24 21 21 19.3
002E6656 2019-04-15 22:34:32 21 21 20.4
002E6656 2019-04-15 22:01:41 21 21 21.2
002E6656 2019-04-15 21:28:49 21 20 21.6
002E6656 2019-04-15 20:56:01 21 20 22.2
002E6656 2019-04-15 20:23:05 21 20 22.7
002E6656 2019-04-15 19:50:13 21 20 23
002E6656 2019-04-15 19:17:22 21 20 23.2
002E6656 2019-04-15 18:44:30 21 20 23.5
002E6656 2019-04-15 18:11:37 21.2 20 23.5
002E6656 2019-04-15 17:38:46 21.2 20 23.7
002E6656 2019-04-15 17:05:54 21.2 20 24.1
002E6656 2019-04-15 16:33:03 21.4 20 24.2
002E6656 2019-04-15 16:00:12 21.4 20 24.4
002E6656 2019-04-15 15:27:22 21.4 20 24.6
002E6656 2019-04-15 14:54:31 21.5 20 24.9
002E6656 2019-04-15 14:21:41 21.6 19 25.1
002E6656 2019-04-15 13:48:51 21.8 19 25.2
002E6656 2019-04-15 13:15:59 21.9 19 25.2
002E6656 2019-04-15 12:43:07 22.2 19 25.4
002E6656 2019-04-15 12:10:13 22.5 19 25.5
002E6656 2019-04-15 11:37:20 22.3 17 25.6
002E6656 2019-04-15 11:04:27 22.2 17 25.7
002E6656 2019-04-15 10:31:36 22.2 18 25.7
002E6656 2019-04-15 09:58:41 22.2 18 25.8
002E6656 2019-04-15 09:25:50 22.1 18 25.9
002E6656 2019-04-15 08:52:58 22 18 25.8
002E6656 2019-04-15 08:20:05 22 18 25.8
002E6656 2019-04-15 07:47:14 21.9 18 25.8
002E6656 2019-04-15 07:14:23 21.8 18 25.7
002E6656 2019-04-15 06:41:32 21.8 18 25.5
002E6656 2019-04-15 06:08:42 21.8 18 25.5
002E6656 2019-04-15 05:35:53 21.8 18 25.6
002E6656 2019-04-15 05:03:04 21.8 18 25.8
002E6656 2019-04-15 04:30:16 21.8 18 25.9
002E6656 2019-04-15 03:57:27 21.8 18 26
002E6656 2019-04-15 03:24:39 21.8 19 25.9
002E6656 2019-04-15 02:51:49 21.8 19 26
002E6656 2019-04-15 02:18:58 21.8 19 26.3
002E6656 2019-04-15 01:46:08 21.8 19 26.3
002E6656 2019-04-15 01:13:16 21.8 19 26.2
002E6656 2019-04-15 00:40:25 21.8 19 26.3
002E6656 2019-04-15 00:07:34 21.8 19 26.3
002E6656 2019-04-14 23:34:42 21.8 19 26.4
002E6656 2019-04-14 23:01:49 21.8 19 26.4
002E6656 2019-04-14 22:28:56 21.8 19 26.5
002E6656 2019-04-14 21:56:03 22 19 26.4
002E6656 2019-04-14 21:23:11 22 19 26.5
002E6656 2019-04-14 20:50:19 22 19 26.6
002E6656 2019-04-14 20:17:26 22 19 26.6
002E6656 2019-04-14 19:44:33 22 19 26.5
002E6656 2019-04-14 19:11:41 22 19 26.4
002E6656 2019-04-14 18:38:49 22 19 26.4
002E6656 2019-04-14 18:05:57 21.8 19 26.4
002E6656 2019-04-14 17:33:05 21.9 19 26.4
002E6656 2019-04-14 17:00:13 21.8 19 26.4
002E6656 2019-04-14 16:27:21 21.9 19 26.4
002E6656 2019-04-14 15:54:29 21.8 19 26.3
002E6656 2019-04-14 15:21:38 21.9 19 26.1
002E6656 2019-04-14 14:48:47 21.9 19 26.1
002E6656 2019-04-14 14:15:58 22 19 26.2
002E6656 2019-04-14 13:43:09 22 19 26
002E6656 2019-04-14 13:10:19 21.9 20 26
002E6656 2019-04-14 12:37:28 22 20 25.9
002E6656 2019-04-14 12:04:37 21.9 20 26
002E6656 2019-04-14 11:31:49 21.9 20 26.3
002E6656 2019-04-14 10:58:58 21.9 20 26.4
002E6656 2019-04-14 10:26:07 21.9 20 26.5
002E6656 2019-04-14 09:53:17 21.9 20 26.7
002E6656 2019-04-14 09:20:25 21.9 19 26.8
002E6656 2019-04-14 08:47:33 21.9 19 26.8
002E6656 2019-04-14 08:14:40 21.9 19 26.7
002E6656 2019-04-14 07:41:48 21.8 19 26.7
002E6656 2019-04-14 07:08:57 21.9 19 26.8
002E6656 2019-04-14 06:36:06 21.9 19 26.8
002E6656 2019-04-14 06:03:15 21.9 19 26.9
002E6656 2019-04-14 05:30:25 21.8 19 27
002E6656 2019-04-14 04:57:33 21.9 19 26.9
002E6656 2019-04-14 04:24:42 21.9 19 26.8
002E6656 2019-04-14 03:51:50 22 19 26.8
002E6656 2019-04-14 03:18:58 22 19 26.9
002E6656 2019-04-14 02:46:07 22 19 26.9
002E6656 2019-04-14 02:13:16 22 19 26.9
002E6656 2019-04-14 01:40:23 22 19 26.9
002E6656 2019-04-14 01:07:32 22 19 27
002E6656 2019-04-14 00:34:45 22 19 26.9
002E6656 2019-04-14 00:01:55 22.1 19 27
002E6656 2019-04-13 23:29:03 22 19 26.9
002E6656 2019-04-13 22:56:13 22 19 26.9
002E6656 2019-04-13 22:23:21 22 19 26.9
002E6656 2019-04-13 21:50:29 22 19 26.6
002E6656 2019-04-13 21:17:38 22.2 19 26.5
002E6656 2019-04-13 20:44:47 22.1 19 26.4
002E6656 2019-04-13 20:11:56 22.2 19 26.2
002E6656 2019-04-13 19:39:05 22.2 19 26
002E6656 2019-04-13 19:06:14 22.2 19 26.1
002E6656 2019-04-13 18:33:22 22.2 19 26.1
002E6656 2019-04-13 18:00:31 22.2 19 26
002E6656 2019-04-13 17:27:41 22.2 19 26.1
002E6656 2019-04-13 16:54:51 22.2 19 26.2
002E6656 2019-04-13 16:22:00 22.2 19 26.1
002E6656 2019-04-13 15:49:08 22.2 19 26
002E6656 2019-04-13 15:16:16 22.2 19 26
002E6656 2019-04-13 14:43:27 22.3 19 26.1
002E6656 2019-04-13 14:10:35 22.4 19 26.1
002E6656 2019-04-13 13:37:45 22.4 19 26.2
002E6656 2019-04-13 13:04:52 22.3 19 26.2
002E6656 2019-04-13 12:31:58 22.4 19 26.3
002E6656 2019-04-13 11:59:05 22.4 19 26.2
002E6656 2019-04-13 11:26:13 22.4 19 26.1
002E6656 2019-04-13 10:53:21 22.4 19 26.2
002E6656 2019-04-13 10:20:31 22.3 19 26.1
002E6656 2019-04-13 09:47:38 22.4 19 26.3
002E6656 2019-04-13 09:14:45 22.4 19 26.1
002E6656 2019-04-13 08:41:54 22.4 19 26
002E6656 2019-04-13 08:09:01 22.3 19 26.1
002E6656 2019-04-13 07:36:09 22.4 19 26
002E6656 2019-04-13 07:03:16 22.4 19 26.1
002E6656 2019-04-13 06:30:24 22.4 19 26.1
002E6656 2019-04-13 05:57:32 22.3 19 26
002E6656 2019-04-13 05:24:41 22.4 19 26
002E6656 2019-04-13 04:51:53 22.5 19 26
002E6656 2019-04-13 04:19:05 22.5 19 25.9
002E6656 2019-04-13 03:46:17 22.5 19 25.9
002E6656 2019-04-13 03:13:29 22.5 19 25.8
002E6656 2019-04-13 02:40:40 22.5 19 26.1
002E6656 2019-04-13 02:07:48 22.5 19 26.1
002E6656 2019-04-13 01:34:57 22.5 20 26.1
002E6656 2019-04-13 01:02:06 22.5 20 26.1
002E6656 2019-04-13 00:29:16 22.6 20 26.2
002E6656 2019-04-12 23:56:25 22.7 20 26.1
002E6656 2019-04-12 23:23:33 22.7 20 26
002E6656 2019-04-12 22:50:42 22.7 20 26
002E6656 2019-04-12 22:17:50 22.7 20 26
002E6656 2019-04-12 21:44:57 22.7 20 25.9
002E6656 2019-04-12 21:12:05 22.9 21 25.9
002E6656 2019-04-12 20:39:13 22.9 20 26
002E6656 2019-04-12 20:06:21 22.9 20 25.9
002E6656 2019-04-12 19:33:29 22.9 20 26
002E6656 2019-04-12 19:00:37 22.9 20 26.2
002E6656 2019-04-12 18:27:45 23.1 19 26.1
002E6656 2019-04-12 17:54:55 23.1 19 26
002E6656 2019-04-12 17:22:04 23.1 20 26
002E6656 2019-04-12 16:49:12 23.1 20 26
002E6656 2019-04-12 16:16:20 23 20 26.5
002E6656 2019-04-12 15:43:32 22.9 21 26.8
002E6656 2019-04-12 15:10:41 22.7 21 27
002E6656 2019-04-12 14:37:49 22.5 22 27.9
002E6656 2019-04-12 14:04:56 22.1 22 26.3
002E6656 2019-04-12 13:32:03 21.6 23 27.9
002E6656 2019-04-12 12:59:10 20.5 30 0